Погода в Христиновке

Украина / Черкасская область     48°48′52″N   29°58′06″E
темп.,
°C
ветер,
м/с
пор.,
м/с
влажн.,
%
обл.,
%
осадки,
мм/ч
давл.,
гПа
погр.,
м
4 марта, чт
чт423:00+1юз34750 0.0 102676
02:00+1юз48770 0.0 1024172
05:00+1юз48810 0.0 1021194
08:00+2юз59810 0.0 1019272
11:00+7юз597011 0.0 1016385
14:00+9зюз596027 0.0 1013782
17:00+8зюз5106334 0.0 1011333
20:00+6зюз5127035 0.0 1012259
5 марта, пт
пт523:00+4зсз348243 0.0 101260
02:00+3з348857 0.0 101274
05:00+3юз2495100 0.4 1011127
08:00+4юз4995100 0.8 1010298
11:00+5з31090100 0.3 1010455
14:00+3ссз5896100 1.1 1011360
17:00+2ссз6996100 0.3 1013562
20:00+1ссз4982100 0.3 1017653
6 марта, сб
сб623:000ссз4983100 0.0 1019427
02:00−1ссз497669 0.0 1020419
05:00−2ссз597180 0.0 1022710
08:00−2ссз7104871 0.0 10241157
11:000ссз710340 0.0 10251791
14:00+1сз7104033 0.0 10252277
17:000сз61048100 0.1 10261766
20:00−2сз395970 0.2 1028439
7 марта, вс
вс723:00−2зсз37600 0.0 1028337
02:00−2з47600 0.0 1028396
05:00−2з59610 0.0 1026482
08:00−1зюз711530 0.0 1025724
11:00+2зюз811400 0.0 10221187
14:00+4зюз912409 0.0 10191423
17:00+2зюз612500 0.0 1017848
20:000зюз614593 0.0 1017425
8 марта, пн
пн823:000з614642 0.0 1017550
02:00−1з613689 0.0 1016572
05:00−1з5107630 0.0 1015707
08:00−1зсз697764 0.0 1016790
11:00+1зсз576799 0.0 10161031
14:00+2зсз687099 0.1 1016975
17:00+1сз585485 0.3 10171199
20:00−1сз4106351 0.3 1019505